User: anonymous   Login
Location: Unspecified
(0.0000°N, 0.0000°E)
Time: 20:44:21
(UTC+02:00)
Language:

Atlas Centaur 2 - Orbit

View from above orbital plane
View from above orbital plane
View from above satellite
View from above satellite

Ground track
Ground track

The orbit data is extracted from the following two-line orbital elements,

1   694U 63047A   17083.93361513 +.00000320 +00000-0 +30553-4 0  9994
2   694 030.3562 268.3659 0588206 020.5798 341.7491 14.02017319671268
Epoch (UTC): 24 March 2017 22:24:24
Eccentricity: 0.0588206
inclination: 30.3562°
perigee height: 459 km
apogee height: 1314 km
right ascension of ascending node: 268.3659°
argument of perigee: 20.5798°
revolutions per day: 14.02017319
mean anomaly at epoch: 341.7491°
orbit number at epoch: 67126

The dashed part of the orbit path shows where the satellite is in the earth's shadow,  

DLR